カタログに戻る

SCOUT B DEB

LostUNKNOWN
NORAD 28803·DEBRIS·🇺🇸 United States

打ち上げ Aug 10, 1965 から Wallops Flight Facility

Loading…

次のパス (今後24時間)

TLE

古いSource: Space-Track

元期: Nov 2, 2021, 14:28 UTC

1 28803U 65063N   21306.60300038  .00000369  00000-0  27087-2 0  9997
2 28803  69.2279  26.0870 0740804 316.9743 102.1817 11.87871480724780

AllMySatでSCOUT B DEBをリアルタイム追跡

Download on the App Store